Regional Weather Roundup
Issued by NWS Goodland, KS

Home | Current Version | Previous Version | Graphics & Text | Print | Product List | Glossary On
Versions: 1 2 3 4 5 6 7 8 9 10 11 12 13 14 15 16 17 18 19 20 21 22 23 24 25 26 27 28 29 30 31 32 33 34 35 36 37 38 39 40 41 42 43 44 45 46 47 48 49 50
000
ASUS43 KGLD 281008
RWRGLD

GOODLAND FORECAST AREA HOURLY WEATHER ROUNDUP
NATIONAL WEATHER SERVICE GOODLAND KS
400 AM MDT SUN AUG 28 2016

...OFFICIAL OBSERVATIONS...

CITY           SKY/WX    TMP DP  RH WIND       PRES   REMARKS
GOODLAND KS    CLOUDY    59  57  93 S3        30.08R
HILL CITY KS   CLOUDY    65  61  87 SE5       30.06S
IMPERIAL NEB   PTCLDY    61  60  97 SE7       30.07R
MCCOOK NEB     CLOUDY    65  63  93 SE5       30.05S
AKRON CO       CLOUDY    59  54  83 SW9       30.11S
BURLINGTON CO  CLOUDY    64  53  67 SW17      30.11R
LIMON CO       CLOUDY    51  51 100 S5        30.18R
$$

...UNOFFICIAL OBSERVATIONS...

CITY           SKY/WX    TMP DP  RH WIND       PRES   REMARKS
COLBY KS       CLEAR     63  63 100 CALM      30.08R
LENORA KS        N/A     66  32  28 MISG        N/A
NORTON KS      CLEAR     68  61  77 S3        30.06S
SHARON SPRINGS   N/A     61  57  88 SW9         N/A
TRENTON NEB      N/A     64  32  30 MISG        N/A
KIT CARSON CO    N/A     62  54  75 MISG        N/A
YUMA CO          N/A     52  50  92 CALM        N/A
$$




USA.gov is the U.S. government's official web portal to all federal, state and local government web resources and services.